contact:dominique.lefevre@mio.osupytheas.fr, maurice.libes@osupytheas.fr, didier.mallarino@osupytheas.fr
Project:EMSO http://www.emso-fr.org/EMSO-France
Depth: 2436.0 m
Title:EMSO Ligure Ouest : Data MII capteur MICROCAT
DateTime_Computer,Latitude,Longitude,Temperature,Conductivity,Pressure,DateTime_Instrument
DateTime_Computer,Latitude,Longitude,degC,S m-1,dbar,DateTime_Instrument
2021-09-27T00:01:48Z,42.805,6.029,13.2990,4.60007,2470.46,2021-9-27T02:03:10Z
2021-09-27T00:04:51Z,42.805,6.029,13.2990,4.60014,2470.46,2021-9-27T02:06:13Z
2021-09-27T00:07:54Z,42.805,6.029,13.2988,4.60010,2470.46,2021-9-27T02:09:16Z
2021-09-27T00:10:57Z,42.805,6.029,13.2991,4.60009,2470.483,2021-9-27T02:12:19Z
2021-09-27T00:14:01Z,42.805,6.029,13.2991,4.60009,2470.474,2021-9-27T02:15:22Z
2021-09-27T00:17:04Z,42.805,6.029,13.2995,4.60009,2470.483,2021-9-27T02:18:26Z
2021-09-27T00:20:07Z,42.805,6.029,13.2990,4.60011,2470.413,2021-9-27T02:21:29Z
2021-09-27T00:23:10Z,42.805,6.029,13.2993,4.60013,2470.45,2021-9-27T02:24:32Z
2021-09-27T00:26:13Z,42.805,6.029,13.2991,4.60015,2470.474,2021-9-27T02:27:35Z
2021-09-27T00:29:16Z,42.805,6.029,13.2991,4.60009,2470.45,2021-9-27T02:30:38Z
2021-09-27T00:32:19Z,42.805,6.029,13.2991,4.60009,2470.474,2021-9-27T02:33:41Z
2021-09-27T00:35:22Z,42.805,6.029,13.2990,4.60008,2470.474,2021-9-27T02:36:44Z
2021-09-27T00:38:26Z,42.805,6.029,13.2992,4.60010,2470.45,2021-9-27T02:39:48Z
2021-09-27T00:41:29Z,42.805,6.029,13.2991,4.60006,2470.413,2021-9-27T02:42:51Z
2021-09-27T00:44:32Z,42.805,6.029,13.2991,4.60009,2470.427,2021-9-27T02:45:54Z
2021-09-27T00:47:35Z,42.805,6.029,13.2990,4.60011,2470.437,2021-9-27T02:48:57Z
2021-09-27T00:50:38Z,42.805,6.029,13.2986,4.60009,2470.437,2021-9-27T02:52:00Z
2021-09-27T00:53:41Z,42.805,6.029,13.2990,4.60011,2470.413,2021-9-27T02:55:03Z
2021-09-27T00:56:44Z,42.805,6.029,13.2990,4.60011,2470.366,2021-9-27T02:58:06Z
2021-09-27T00:59:47Z,42.805,6.029,13.2991,4.60011,2470.437,2021-9-27T03:01:09Z
2021-09-27T01:02:51Z,42.805,6.029,13.2991,4.60008,2470.437,2021-9-27T03:04:12Z
2021-09-27T01:05:54Z,42.805,6.029,13.2991,4.60010,2470.437,2021-9-27T03:07:16Z
2021-09-27T01:08:57Z,42.805,6.029,13.2991,4.60009,2470.39,2021-9-27T03:10:19Z
2021-09-27T01:12:00Z,42.805,6.029,13.2990,4.60009,2470.413,2021-9-27T03:13:22Z
2021-09-27T01:15:03Z,42.805,6.029,13.2991,4.60009,2470.427,2021-9-27T03:16:25Z
2021-09-27T01:18:06Z,42.805,6.029,13.2991,4.60009,2470.437,2021-9-27T03:19:28Z
2021-09-27T01:21:09Z,42.805,6.029,13.2989,4.60009,2470.413,2021-9-27T03:22:31Z
2021-09-27T01:24:12Z,42.805,6.029,13.2991,4.60009,2470.427,2021-9-27T03:25:34Z
2021-09-27T01:27:16Z,42.805,6.029,13.2991,4.60009,2470.427,2021-9-27T03:28:37Z
2021-09-27T01:30:19Z,42.805,6.029,13.2990,4.60007,2470.437,2021-9-27T03:31:41Z
2021-09-27T01:33:22Z,42.805,6.029,13.2990,4.60008,2470.413,2021-9-27T03:34:44Z
2021-09-27T01:36:25Z,42.805,6.029,13.2991,4.60009,2470.413,2021-9-27T03:37:47Z
2021-09-27T01:39:28Z,42.805,6.029,13.2995,4.60010,2470.413,2021-9-27T03:40:50Z
2021-09-27T01:42:31Z,42.805,6.029,13.2991,4.60008,2470.39,2021-9-27T03:43:53Z
2021-09-27T01:45:34Z,42.805,6.029,13.2989,4.60009,2470.404,2021-9-27T03:46:56Z
2021-09-27T01:48:37Z,42.805,6.029,13.2994,4.60011,2470.39,2021-9-27T03:49:59Z
2021-09-27T01:51:41Z,42.805,6.029,13.2993,4.60011,2470.39,2021-9-27T03:53:02Z
2021-09-27T01:54:44Z,42.805,6.029,13.2990,4.60013,2470.437,2021-9-27T03:56:06Z
2021-09-27T01:57:47Z,42.805,6.029,13.2990,4.60009,2470.413,2021-9-27T03:59:09Z
2021-09-27T02:00:50Z,42.805,6.029,13.2994,4.60007,2470.38,2021-9-27T04:02:12Z
2021-09-27T02:03:53Z,42.805,6.029,13.2991,4.60006,2470.427,2021-9-27T04:05:15Z
2021-09-27T02:06:56Z,42.805,6.029,13.2990,4.60008,2470.39,2021-9-27T04:08:18Z
2021-09-27T02:09:59Z,42.805,6.029,13.2990,4.60009,2470.39,2021-9-27T04:11:21Z
2021-09-27T02:13:02Z,42.805,6.029,13.2991,4.60008,2470.404,2021-9-27T04:14:24Z
2021-09-27T02:16:06Z,42.805,6.029,13.2991,4.60008,2470.366,2021-9-27T04:17:27Z
2021-09-27T02:19:09Z,42.805,6.029,13.2988,4.60009,2470.39,2021-9-27T04:20:31Z
2021-09-27T02:22:12Z,42.805,6.029,13.2992,4.60009,2470.39,2021-9-27T04:23:34Z
2021-09-27T02:25:15Z,42.805,6.029,13.2991,4.60009,2470.413,2021-9-27T04:26:37Z
2021-09-27T02:28:18Z,42.805,6.029,13.2992,4.60008,2470.404,2021-9-27T04:29:40Z
2021-09-27T02:31:21Z,42.805,6.029,13.2992,4.60007,2470.38,2021-9-27T04:32:43Z
2021-09-27T02:34:24Z,42.805,6.029,13.2991,4.60008,2470.38,2021-9-27T04:35:46Z
2021-09-27T02:37:27Z,42.805,6.029,13.2992,4.60009,2470.404,2021-9-27T04:38:49Z
2021-09-27T02:40:31Z,42.805,6.029,13.2993,4.60008,2470.39,2021-9-27T04:41:52Z
2021-09-27T02:43:34Z,42.805,6.029,13.2991,4.60008,2470.366,2021-9-27T04:44:56Z
2021-09-27T02:46:37Z,42.805,6.029,13.2990,4.60009,2470.366,2021-9-27T04:47:59Z
2021-09-27T02:49:40Z,42.805,6.029,13.2992,4.60007,2470.413,2021-9-27T04:51:02Z
2021-09-27T02:52:43Z,42.805,6.029,13.2990,4.60010,2470.366,2021-9-27T04:54:05Z
2021-09-27T02:55:46Z,42.805,6.029,13.2991,4.60009,2470.366,2021-9-27T04:57:08Z
2021-09-27T02:58:49Z,42.805,6.029,13.2992,4.60010,2470.366,2021-9-27T05:00:11Z
2021-09-27T03:01:52Z,42.805,6.029,13.2992,4.60008,2470.366,2021-9-27T05:03:14Z
2021-09-27T03:04:55Z,42.805,6.029,13.2990,4.60009,2470.38,2021-9-27T05:06:17Z
2021-09-27T03:07:59Z,42.805,6.029,13.2991,4.60009,2470.39,2021-9-27T05:09:21Z
2021-09-27T03:11:02Z,42.805,6.029,13.2991,4.60009,2470.366,2021-9-27T05:12:24Z
2021-09-27T03:14:05Z,42.805,6.029,13.2990,4.60009,2470.366,2021-9-27T05:15:27Z
2021-09-27T03:17:08Z,42.805,6.029,13.2991,4.60007,2470.366,2021-9-27T05:18:30Z
2021-09-27T03:20:11Z,42.805,6.029,13.2989,4.60009,2470.404,2021-9-27T05:21:33Z
2021-09-27T03:23:14Z,42.805,6.029,13.2991,4.60008,2470.357,2021-9-27T05:24:36Z
2021-09-27T03:26:17Z,42.805,6.029,13.2990,4.60009,2470.343,2021-9-27T05:27:39Z
2021-09-27T03:29:20Z,42.805,6.029,13.2991,4.60007,2470.39,2021-9-27T05:30:42Z
2021-09-27T03:32:24Z,42.805,6.029,13.2993,4.60009,2470.39,2021-9-27T05:33:46Z
2021-09-27T03:35:27Z,42.805,6.029,13.2990,4.60007,2470.343,2021-9-27T05:36:49Z
2021-09-27T03:38:30Z,42.805,6.029,13.2990,4.60009,2470.366,2021-9-27T05:39:52Z
2021-09-27T03:41:33Z,42.805,6.029,13.2993,4.60011,2470.366,2021-9-27T05:42:55Z
2021-09-27T03:44:36Z,42.805,6.029,13.2989,4.60009,2470.38,2021-9-27T05:45:58Z
2021-09-27T03:47:39Z,42.805,6.029,13.2988,4.60011,2470.39,2021-9-27T05:49:01Z
2021-09-27T03:50:42Z,42.805,6.029,13.2991,4.60010,2470.366,2021-9-27T05:52:04Z
2021-09-27T03:53:45Z,42.805,6.029,13.2989,4.60009,2470.366,2021-9-27T05:55:07Z
2021-09-27T03:56:49Z,42.805,6.029,13.2991,4.60011,2470.427,2021-9-27T05:58:11Z
2021-09-27T03:59:52Z,42.805,6.029,13.2990,4.60009,2470.39,2021-9-27T06:01:14Z
2021-09-27T04:02:55Z,42.805,6.029,13.2992,4.60009,2470.38,2021-9-27T06:04:17Z
2021-09-27T04:05:58Z,42.805,6.029,13.2991,4.60007,2470.366,2021-9-27T06:07:20Z
2021-09-27T04:09:01Z,42.805,6.029,13.2995,4.60009,2470.38,2021-9-27T06:10:23Z
2021-09-27T04:12:04Z,42.805,6.029,13.2991,4.60009,2470.366,2021-9-27T06:13:26Z
2021-09-27T04:15:07Z,42.805,6.029,13.2992,4.60007,2470.366,2021-9-27T06:16:29Z
2021-09-27T04:18:10Z,42.805,6.029,13.2990,4.60009,2470.366,2021-9-27T06:19:32Z
2021-09-27T04:21:14Z,42.805,6.029,13.2993,4.60010,2470.39,2021-9-27T06:22:36Z
2021-09-27T04:24:17Z,42.805,6.029,13.2993,4.60009,2470.39,2021-9-27T06:25:39Z
2021-09-27T04:27:20Z,42.805,6.029,13.2991,4.60009,2470.38,2021-9-27T06:28:42Z
2021-09-27T04:30:23Z,42.805,6.029,13.2988,4.60009,2470.366,2021-9-27T06:31:45Z
2021-09-27T04:33:26Z,42.805,6.029,13.2987,4.60008,2470.343,2021-9-27T06:34:48Z
2021-09-27T04:36:29Z,42.805,6.029,13.2991,4.60010,2470.366,2021-9-27T06:37:51Z
2021-09-27T04:39:32Z,42.805,6.029,13.2990,4.60009,2470.366,2021-9-27T06:40:54Z
2021-09-27T04:42:35Z,42.805,6.029,13.2991,4.60009,2470.366,2021-9-27T06:43:57Z
2021-09-27T04:45:39Z,42.805,6.029,13.2995,4.60009,2470.366,2021-9-27T06:47:01Z
2021-09-27T04:48:42Z,42.805,6.029,13.2990,4.60009,2470.366,2021-9-27T06:50:04Z
2021-09-27T04:51:45Z,42.805,6.029,13.2993,4.60008,2470.366,2021-9-27T06:53:07Z
2021-09-27T04:54:48Z,42.805,6.029,13.2993,4.60008,2470.366,2021-9-27T06:56:10Z
2021-09-27T04:57:51Z,42.805,6.029,13.2992,4.60007,2470.357,2021-9-27T06:59:13Z
2021-09-27T05:00:54Z,42.805,6.029,13.2995,4.60008,2470.366,2021-9-27T07:02:16Z
2021-09-27T05:03:57Z,42.805,6.029,13.2991,4.60007,2470.357,2021-9-27T07:05:19Z
2021-09-27T05:07:00Z,42.805,6.029,13.2992,4.60009,2470.38,2021-9-27T07:08:22Z
2021-09-27T05:10:04Z,42.805,6.029,13.2991,4.60010,2470.39,2021-9-27T07:11:26Z
2021-09-27T05:13:07Z,42.805,6.029,13.2988,4.60007,2470.357,2021-9-27T07:14:29Z
2021-09-27T05:16:10Z,42.805,6.029,13.2988,4.60008,2470.366,2021-9-27T07:17:32Z
2021-09-27T05:19:13Z,42.805,6.029,13.2990,4.60007,2470.353,2021-9-27T07:20:35Z
2021-09-27T05:22:16Z,42.805,6.029,13.2992,4.60006,2470.343,2021-9-27T07:23:38Z
2021-09-27T05:25:19Z,42.805,6.029,13.2990,4.60006,2470.366,2021-9-27T07:26:41Z
2021-09-27T05:28:22Z,42.805,6.029,13.2990,4.60006,2470.38,2021-9-27T07:29:44Z
2021-09-27T05:31:25Z,42.805,6.029,13.2991,4.60007,2470.366,2021-9-27T07:32:47Z
2021-09-27T05:34:29Z,42.805,6.029,13.2989,4.60008,2470.343,2021-9-27T07:35:51Z
2021-09-27T05:37:32Z,42.805,6.029,13.2992,4.60007,2470.357,2021-9-27T07:38:54Z
2021-09-27T05:40:35Z,42.805,6.029,13.2990,4.60007,2470.357,2021-9-27T07:41:57Z
2021-09-27T05:43:38Z,42.805,6.029,13.2991,4.60006,2470.343,2021-9-27T07:45:00Z
2021-09-27T05:46:41Z,42.805,6.029,13.2993,4.60007,2470.38,2021-9-27T07:48:03Z
2021-09-27T05:49:44Z,42.805,6.029,13.2992,4.60007,2470.366,2021-9-27T07:51:06Z
2021-09-27T05:52:47Z,42.805,6.029,13.2992,4.60009,2470.366,2021-9-27T07:54:09Z
2021-09-27T05:55:50Z,42.805,6.029,13.2989,4.60007,2470.353,2021-9-27T07:57:12Z
2021-09-27T05:58:54Z,42.805,6.029,13.2990,4.60008,2470.343,2021-9-27T08:00:15Z
2021-09-27T06:01:57Z,42.805,6.029,13.2992,4.60008,2470.343,2021-9-27T08:03:19Z
2021-09-27T06:05:00Z,42.805,6.029,13.2993,4.60007,2470.343,2021-9-27T08:06:22Z
2021-09-27T06:08:03Z,42.805,6.029,13.2990,4.60007,2470.32,2021-9-27T08:09:25Z
2021-09-27T06:11:06Z,42.805,6.029,13.2989,4.60006,2470.38,2021-9-27T08:12:28Z
2021-09-27T06:14:09Z,42.805,6.029,13.2990,4.60008,2470.357,2021-9-27T08:15:31Z
2021-09-27T06:17:12Z,42.805,6.029,13.2990,4.60007,2470.38,2021-9-27T08:18:34Z
2021-09-27T06:20:15Z,42.805,6.029,13.2991,4.60006,2470.366,2021-9-27T08:21:37Z
2021-09-27T06:23:19Z,42.805,6.029,13.2990,4.60007,2470.38,2021-9-27T08:24:41Z
2021-09-27T06:26:22Z,42.805,6.029,13.2989,4.60006,2470.38,2021-9-27T08:27:44Z
2021-09-27T06:29:25Z,42.805,6.029,13.2990,4.60005,2470.39,2021-9-27T08:30:47Z
2021-09-27T06:32:28Z,42.805,6.029,13.2991,4.60007,2470.357,2021-9-27T08:33:50Z
2021-09-27T06:35:31Z,42.805,6.029,13.2991,4.60005,2470.366,2021-9-27T08:36:53Z
2021-09-27T06:38:34Z,42.805,6.029,13.2990,4.60006,2470.39,2021-9-27T08:39:56Z
2021-09-27T06:41:37Z,42.805,6.029,13.2992,4.60007,2470.366,2021-9-27T08:42:59Z
2021-09-27T06:44:40Z,42.805,6.029,13.2992,4.60008,2470.39,2021-9-27T08:46:02Z
2021-09-27T06:47:43Z,42.805,6.029,13.2988,4.60007,2470.38,2021-9-27T08:49:05Z
2021-09-27T06:50:47Z,42.805,6.029,13.2991,4.60008,2470.39,2021-9-27T08:52:09Z
2021-09-27T06:53:50Z,42.805,6.029,13.2990,4.60009,2470.366,2021-9-27T08:55:12Z
2021-09-27T06:56:53Z,42.805,6.029,13.2991,4.60008,2470.366,2021-9-27T08:58:15Z
2021-09-27T06:59:56Z,42.805,6.029,13.2991,4.60007,2470.366,2021-9-27T09:01:18Z
2021-09-27T07:02:59Z,42.805,6.029,13.2991,4.60009,2470.39,2021-9-27T09:04:21Z
2021-09-27T07:06:02Z,42.805,6.029,13.2993,4.60007,2470.366,2021-9-27T09:07:24Z
2021-09-27T07:09:05Z,42.805,6.029,13.2991,4.60009,2470.399,2021-9-27T09:10:27Z
2021-09-27T07:12:08Z,42.805,6.029,13.2990,4.60006,2470.366,2021-9-27T09:13:30Z
2021-09-27T07:15:12Z,42.805,6.029,13.2991,4.60007,2470.39,2021-9-27T09:16:34Z
2021-09-27T07:18:15Z,42.805,6.029,13.2990,4.60008,2470.39,2021-9-27T09:19:37Z
2021-09-27T07:21:18Z,42.805,6.029,13.2993,4.60009,2470.413,2021-9-27T09:22:40Z
2021-09-27T07:24:21Z,42.805,6.029,13.2994,4.60009,2470.39,2021-9-27T09:25:43Z
2021-09-27T07:27:24Z,42.805,6.029,13.2992,4.60008,2470.413,2021-9-27T09:28:46Z
2021-09-27T07:30:27Z,42.805,6.029,13.2991,4.60008,2470.39,2021-9-27T09:31:49Z
2021-09-27T07:33:30Z,42.805,6.029,13.2990,4.60008,2470.427,2021-9-27T09:34:52Z
2021-09-27T07:36:33Z,42.805,6.029,13.2991,4.60009,2470.404,2021-9-27T09:37:55Z
2021-09-27T07:39:37Z,42.805,6.029,13.2990,4.60008,2470.45,2021-9-27T09:40:59Z
2021-09-27T07:42:40Z,42.805,6.029,13.2990,4.60009,2470.413,2021-9-27T09:44:02Z
2021-09-27T07:45:43Z,42.805,6.029,13.2994,4.60007,2470.39,2021-9-27T09:47:05Z
2021-09-27T07:48:46Z,42.805,6.029,13.2993,4.60009,2470.437,2021-9-27T09:50:08Z
2021-09-27T07:51:49Z,42.805,6.029,13.2987,4.60010,2470.413,2021-9-27T09:53:11Z
2021-09-27T07:54:52Z,42.805,6.029,13.2991,4.60008,2470.39,2021-9-27T09:56:14Z
2021-09-27T07:57:55Z,42.805,6.029,13.2990,4.60008,2470.413,2021-9-27T09:59:17Z
2021-09-27T08:00:58Z,42.805,6.029,13.2994,4.60007,2470.427,2021-9-27T10:02:20Z
2021-09-27T08:04:02Z,42.805,6.029,13.2990,4.60008,2470.413,2021-9-27T10:05:24Z
2021-09-27T08:07:05Z,42.805,6.029,13.2989,4.60010,2470.437,2021-9-27T10:08:27Z
2021-09-27T08:10:08Z,42.805,6.029,13.2993,4.60009,2470.404,2021-9-27T10:11:30Z
2021-09-27T08:13:11Z,42.805,6.029,13.2991,4.60008,2470.427,2021-9-27T10:14:33Z
2021-09-27T08:16:14Z,42.805,6.029,13.2991,4.60007,2470.413,2021-9-27T10:17:36Z
2021-09-27T08:19:17Z,42.805,6.029,13.2991,4.60009,2470.45,2021-9-27T10:20:39Z
2021-09-27T08:22:20Z,42.805,6.029,13.2990,4.60010,2470.437,2021-9-27T10:23:42Z
2021-09-27T08:25:23Z,42.805,6.029,13.2995,4.60009,2470.46,2021-9-27T10:26:45Z
2021-09-27T08:28:27Z,42.805,6.029,13.2993,4.60011,2470.437,2021-9-27T10:29:49Z
2021-09-27T08:31:30Z,42.805,6.029,13.2991,4.60009,2470.437,2021-9-27T10:32:52Z
2021-09-27T08:34:33Z,42.805,6.029,13.2992,4.60009,2470.437,2021-9-27T10:35:55Z
2021-09-27T08:37:36Z,42.805,6.029,13.2988,4.60009,2470.474,2021-9-27T10:38:58Z
2021-09-27T08:40:39Z,42.805,6.029,13.2991,4.60009,2470.437,2021-9-27T10:42:01Z
2021-09-27T08:43:42Z,42.805,6.029,13.2992,4.60009,2470.46,2021-9-27T10:45:04Z
2021-09-27T08:46:45Z,42.805,6.029,13.2990,4.60010,2470.437,2021-9-27T10:48:07Z
2021-09-27T08:49:49Z,42.805,6.029,13.2993,4.60011,2470.483,2021-9-27T10:51:10Z
2021-09-27T08:52:52Z,42.805,6.029,13.2993,4.60009,2470.46,2021-9-27T10:54:14Z
2021-09-27T08:55:55Z,42.805,6.029,13.2991,4.60008,2470.437,2021-9-27T10:57:17Z
2021-09-27T08:58:58Z,42.805,6.029,13.2990,4.60011,2470.46,2021-9-27T11:00:20Z
2021-09-27T09:02:01Z,42.805,6.029,13.2993,4.60008,2470.483,2021-9-27T11:03:23Z
2021-09-27T09:05:04Z,42.805,6.029,13.2991,4.60008,2470.474,2021-9-27T11:06:26Z
2021-09-27T09:08:07Z,42.805,6.029,13.2991,4.60011,2470.474,2021-9-27T11:09:29Z
2021-09-27T09:11:10Z,42.805,6.029,13.2993,4.60008,2470.45,2021-9-27T11:12:32Z
2021-09-27T09:14:14Z,42.805,6.029,13.2993,4.60009,2470.474,2021-9-27T11:15:36Z
2021-09-27T09:17:17Z,42.805,6.029,13.2993,4.60008,2470.437,2021-9-27T11:18:39Z
2021-09-27T09:20:20Z,42.805,6.029,13.2989,4.60008,2470.483,2021-9-27T11:21:42Z
2021-09-27T09:23:23Z,42.805,6.029,13.2993,4.60009,2470.474,2021-9-27T11:24:45Z
2021-09-27T09:26:26Z,42.805,6.029,13.2990,4.60007,2470.474,2021-9-27T11:27:48Z
2021-09-27T09:29:29Z,42.805,6.029,13.2990,4.60010,2470.474,2021-9-27T11:30:51Z
2021-09-27T09:32:32Z,42.805,6.029,13.2990,4.60010,2470.483,2021-9-27T11:33:54Z
2021-09-27T09:35:35Z,42.805,6.029,13.2992,4.60009,2470.497,2021-9-27T11:36:57Z
2021-09-27T09:38:39Z,42.805,6.029,13.2990,4.60009,2470.483,2021-9-27T11:40:01Z
2021-09-27T09:41:42Z,42.805,6.029,13.2991,4.60009,2470.46,2021-9-27T11:43:04Z
2021-09-27T09:44:45Z,42.805,6.029,13.2992,4.60009,2470.497,2021-9-27T11:46:07Z
2021-09-27T09:47:48Z,42.805,6.029,13.2990,4.60008,2470.45,2021-9-27T11:49:10Z
2021-09-27T09:50:51Z,42.805,6.029,13.2989,4.60008,2470.47,2021-9-27T11:52:13Z
2021-09-27T09:53:54Z,42.805,6.029,13.2991,4.60009,2470.483,2021-9-27T11:55:16Z
2021-09-27T09:56:57Z,42.805,6.029,13.2993,4.60009,2470.483,2021-9-27T11:58:19Z
2021-09-27T10:00:00Z,42.805,6.029,13.2991,4.60011,2470.497,2021-9-27T12:01:22Z
2021-09-27T10:03:04Z,42.805,6.029,13.2991,4.60009,2470.497,2021-9-27T12:04:26Z
2021-09-27T10:06:07Z,42.805,6.029,13.2991,4.60008,2470.497,2021-9-27T12:07:29Z
2021-09-27T10:09:10Z,42.805,6.029,13.2993,4.60009,2470.46,2021-9-27T12:10:32Z
2021-09-27T10:12:13Z,42.805,6.029,13.2990,4.60008,2470.483,2021-9-27T12:13:35Z
2021-09-27T10:15:16Z,42.805,6.029,13.2991,4.60009,2470.497,2021-9-27T12:16:38Z
2021-09-27T10:18:19Z,42.805,6.029,13.2993,4.60009,2470.483,2021-9-27T12:19:41Z
2021-09-27T10:21:22Z,42.805,6.029,13.2990,4.60009,2470.483,2021-9-27T12:22:44Z
2021-09-27T10:24:25Z,42.805,6.029,13.2993,4.60009,2470.483,2021-9-27T12:25:47Z
2021-09-27T10:27:29Z,42.805,6.029,13.2993,4.60009,2470.483,2021-9-27T12:28:51Z
2021-09-27T10:30:32Z,42.805,6.029,13.2990,4.60009,2470.507,2021-9-27T12:31:54Z
2021-09-27T10:33:35Z,42.805,6.029,13.2988,4.60011,2470.544,2021-9-27T12:34:57Z
2021-09-27T10:36:38Z,42.805,6.029,13.2990,4.60007,2470.46,2021-9-27T12:38:00Z
2021-09-27T10:39:41Z,42.805,6.029,13.2991,4.60007,2470.497,2021-9-27T12:41:03Z
2021-09-27T10:42:44Z,42.805,6.029,13.2988,4.60009,2470.483,2021-9-27T12:44:06Z
2021-09-27T10:45:47Z,42.805,6.029,13.2989,4.60011,2470.46,2021-9-27T12:47:09Z
2021-09-27T10:48:50Z,42.805,6.029,13.2993,4.60011,2470.497,2021-9-27T12:50:12Z
2021-09-27T10:51:54Z,42.805,6.029,13.2990,4.60009,2470.497,2021-9-27T12:53:16Z
2021-09-27T10:54:57Z,42.805,6.029,13.2994,4.60009,2470.483,2021-9-27T12:56:19Z
2021-09-27T10:58:00Z,42.805,6.029,13.2991,4.60009,2470.52,2021-9-27T12:59:22Z
2021-09-27T11:01:03Z,42.805,6.029,13.2991,4.60008,2470.474,2021-9-27T13:02:25Z
2021-09-27T11:04:06Z,42.805,6.029,13.2992,4.60009,2470.53,2021-9-27T13:05:28Z
2021-09-27T11:07:09Z,42.805,6.029,13.2993,4.60009,2470.474,2021-9-27T13:08:31Z
2021-09-27T11:10:12Z,42.805,6.029,13.2994,4.60009,2470.437,2021-9-27T13:11:34Z
2021-09-27T11:13:16Z,42.805,6.029,13.2997,4.60009,2470.437,2021-9-27T13:14:37Z
2021-09-27T11:16:19Z,42.805,6.029,13.2991,4.60007,2470.507,2021-9-27T13:17:41Z
2021-09-27T11:19:22Z,42.805,6.029,13.2993,4.60008,2470.474,2021-9-27T13:20:44Z
2021-09-27T11:22:25Z,42.805,6.029,13.2996,4.60011,2470.483,2021-9-27T13:23:47Z
2021-09-27T11:25:28Z,42.805,6.029,13.2990,4.60011,2470.483,2021-9-27T13:26:50Z
2021-09-27T11:28:31Z,42.805,6.029,13.2990,4.60009,2470.497,2021-9-27T13:29:53Z
2021-09-27T11:31:34Z,42.805,6.029,13.2993,4.60009,2470.46,2021-9-27T13:32:56Z
2021-09-27T11:34:37Z,42.805,6.029,13.2986,4.60011,2470.497,2021-9-27T13:35:59Z
2021-09-27T11:37:41Z,42.805,6.029,13.2990,4.60009,2470.483,2021-9-27T13:39:03Z
2021-09-27T11:40:44Z,42.805,6.029,13.2991,4.60008,2470.46,2021-9-27T13:42:06Z
2021-09-27T11:43:47Z,42.805,6.029,13.2992,4.60008,2470.46,2021-9-27T13:45:09Z
2021-09-27T11:46:50Z,42.805,6.029,13.2993,4.60009,2470.497,2021-9-27T13:48:12Z
2021-09-27T11:49:53Z,42.805,6.029,13.2994,4.60009,2470.483,2021-9-27T13:51:15Z
2021-09-27T11:52:56Z,42.805,6.029,13.2989,4.60007,2470.46,2021-9-27T13:54:18Z
2021-09-27T11:55:59Z,42.805,6.029,13.2988,4.60008,2470.507,2021-9-27T13:57:21Z
2021-09-27T11:59:02Z,42.805,6.029,13.2991,4.60009,2470.483,2021-9-27T14:00:24Z
2021-09-27T12:02:06Z,42.805,6.029,13.2991,4.60007,2470.46,2021-9-27T14:03:28Z
2021-09-27T12:05:09Z,42.805,6.029,13.2991,4.60009,2470.437,2021-9-27T14:06:31Z
2021-09-27T12:08:12Z,42.805,6.029,13.2987,4.60006,2470.483,2021-9-27T14:09:34Z
2021-09-27T12:11:15Z,42.805,6.029,13.2990,4.60006,2470.427,2021-9-27T14:12:37Z
2021-09-27T12:14:18Z,42.805,6.029,13.2990,4.60008,2470.483,2021-9-27T14:15:40Z
2021-09-27T12:17:21Z,42.805,6.029,13.2991,4.60006,2470.437,2021-9-27T14:18:43Z
2021-09-27T12:20:24Z,42.805,6.029,13.2990,4.60009,2470.474,2021-9-27T14:21:46Z
2021-09-27T12:23:27Z,42.805,6.029,13.2990,4.60009,2470.474,2021-9-27T14:24:49Z
2021-09-27T12:26:31Z,42.805,6.029,13.2991,4.60011,2470.474,2021-9-27T14:27:53Z
2021-09-27T12:29:34Z,42.805,6.029,13.2993,4.60008,2470.497,2021-9-27T14:30:56Z
2021-09-27T12:32:37Z,42.805,6.029,13.2993,4.60009,2470.46,2021-9-27T14:33:59Z
2021-09-27T12:35:40Z,42.805,6.029,13.2990,4.60008,2470.46,2021-9-27T14:37:02Z
2021-09-27T12:38:43Z,42.805,6.029,13.2994,4.60009,2470.46,2021-9-27T14:40:05Z
2021-09-27T12:41:46Z,42.805,6.029,13.2990,4.60007,2470.437,2021-9-27T14:43:08Z
2021-09-27T12:44:49Z,42.805,6.029,13.2993,4.60009,2470.437,2021-9-27T14:46:11Z
2021-09-27T12:47:52Z,42.805,6.029,13.2991,4.60007,2470.437,2021-9-27T14:49:14Z
2021-09-27T12:50:56Z,42.805,6.029,13.2993,4.60008,2470.46,2021-9-27T14:52:18Z
2021-09-27T12:53:59Z,42.805,6.029,13.2991,4.60009,2470.46,2021-9-27T14:55:21Z
2021-09-27T12:57:02Z,42.805,6.029,13.2989,4.60009,2470.45,2021-9-27T14:58:24Z
2021-09-27T13:00:05Z,42.805,6.029,13.2993,4.60010,2470.45,2021-9-27T15:01:27Z
2021-09-27T13:03:08Z,42.805,6.029,13.2993,4.60009,2470.46,2021-9-27T15:04:30Z
2021-09-27T13:06:11Z,42.805,6.029,13.2991,4.60009,2470.413,2021-9-27T15:07:33Z
2021-09-27T13:09:14Z,42.805,6.029,13.2991,4.60008,2470.46,2021-9-27T15:10:36Z
2021-09-27T13:12:17Z,42.805,6.029,13.2993,4.60009,2470.45,2021-9-27T15:13:39Z
2021-09-27T13:15:21Z,42.805,6.029,13.2990,4.60013,2470.427,2021-9-27T15:16:43Z
2021-09-27T13:18:24Z,42.805,6.029,13.2990,4.60008,2470.46,2021-9-27T15:19:46Z
2021-09-27T13:21:27Z,42.805,6.029,13.2994,4.60009,2470.413,2021-9-27T15:22:49Z
2021-09-27T13:24:30Z,42.805,6.029,13.2990,4.60008,2470.413,2021-9-27T15:25:52Z
2021-09-27T13:27:33Z,42.805,6.029,13.2989,4.60011,2470.46,2021-9-27T15:28:55Z
2021-09-27T13:30:36Z,42.805,6.029,13.2991,4.60007,2470.427,2021-9-27T15:31:58Z
2021-09-27T13:33:39Z,42.805,6.029,13.2990,4.60011,2470.45,2021-9-27T15:35:01Z
2021-09-27T13:36:42Z,42.805,6.029,13.2990,4.60008,2470.427,2021-9-27T15:38:04Z
2021-09-27T13:39:46Z,42.805,6.029,13.2993,4.60009,2470.413,2021-9-27T15:41:08Z
2021-09-27T13:42:49Z,42.805,6.029,13.2990,4.60009,2470.46,2021-9-27T15:44:11Z
2021-09-27T13:45:52Z,42.805,6.029,13.2991,4.60007,2470.427,2021-9-27T15:47:14Z
2021-09-27T13:48:55Z,42.805,6.029,13.2991,4.60009,2470.45,2021-9-27T15:50:17Z
2021-09-27T13:51:58Z,42.805,6.029,13.2993,4.60007,2470.413,2021-9-27T15:53:20Z
2021-09-27T13:55:01Z,42.805,6.029,13.2990,4.60009,2470.483,2021-9-27T15:56:23Z
2021-09-27T13:58:04Z,42.805,6.029,13.2992,4.60010,2470.45,2021-9-27T15:59:26Z
2021-09-27T14:01:07Z,42.805,6.029,13.2990,4.60010,2470.427,2021-9-27T16:02:29Z
2021-09-27T14:04:11Z,42.805,6.029,13.2991,4.60007,2470.437,2021-9-27T16:05:33Z
2021-09-27T14:07:14Z,42.805,6.029,13.2988,4.60009,2470.404,2021-9-27T16:08:36Z
2021-09-27T14:10:17Z,42.805,6.029,13.2988,4.60010,2470.437,2021-9-27T16:11:39Z
2021-09-27T14:13:20Z,42.805,6.029,13.2991,4.60009,2470.413,2021-9-27T16:14:42Z
2021-09-27T14:16:23Z,42.805,6.029,13.2992,4.60010,2470.45,2021-9-27T16:17:45Z
2021-09-27T14:19:26Z,42.805,6.029,13.2990,4.60008,2470.46,2021-9-27T16:20:48Z
2021-09-27T14:22:29Z,42.805,6.029,13.2991,4.60006,2470.413,2021-9-27T16:23:51Z
2021-09-27T14:25:33Z,42.805,6.029,13.2990,4.60007,2470.437,2021-9-27T16:26:55Z
2021-09-27T14:28:36Z,42.805,6.029,13.2990,4.60008,2470.437,2021-9-27T16:29:58Z
2021-09-27T14:31:39Z,42.805,6.029,13.2990,4.60008,2470.404,2021-9-27T16:33:01Z
2021-09-27T14:34:42Z,42.805,6.029,13.2993,4.60009,2470.46,2021-9-27T16:36:04Z
2021-09-27T14:37:45Z,42.805,6.029,13.2985,4.60007,2470.437,2021-9-27T16:39:07Z
2021-09-27T14:40:48Z,42.805,6.029,13.2991,4.60008,2470.45,2021-9-27T16:42:10Z
2021-09-27T14:43:51Z,42.805,6.029,13.2992,4.60008,2470.413,2021-9-27T16:45:13Z
2021-09-27T14:46:54Z,42.805,6.029,13.2991,4.60007,2470.46,2021-9-27T16:48:16Z
2021-09-27T14:49:58Z,42.805,6.029,13.2989,4.60009,2470.427,2021-9-27T16:51:20Z
2021-09-27T14:53:01Z,42.805,6.029,13.2990,4.60009,2470.437,2021-9-27T16:54:23Z
2021-09-27T14:56:04Z,42.805,6.029,13.2993,4.60006,2470.39,2021-9-27T16:57:26Z
2021-09-27T14:59:07Z,42.805,6.029,13.2991,4.60006,2470.39,2021-9-27T17:00:29Z
2021-09-27T15:02:10Z,42.805,6.029,13.2990,4.60008,2470.39,2021-9-27T17:03:32Z
2021-09-27T15:05:13Z,42.805,6.029,13.2990,4.60009,2470.404,2021-9-27T17:06:35Z
2021-09-27T15:08:16Z,42.805,6.029,13.2991,4.60008,2470.413,2021-9-27T17:09:38Z
2021-09-27T15:11:19Z,42.805,6.029,13.2989,4.60009,2470.45,2021-9-27T17:12:41Z
2021-09-27T15:14:23Z,42.805,6.029,13.2988,4.60006,2470.413,2021-9-27T17:15:45Z